Weather History for Haines, AK

Change the Weather History Date:

Friday, November 2, 2012

  Actual Average Record
Temperature  
Mean Temperature 26 °F -  
Max Temperature 28 °F 37 °F 51 °F (1981)
Min Temperature 24 °F 30 °F 8 °F (1975)
Degree Days  
Heating Degree Days 39    
Moisture  
Dew Point 22 °F    
Average Humidity 85    
Maximum Humidity 93    
Minimum Humidity 63    
Precipitation  
Precipitation 0.16 in - - ()
Sea Level Pressure  
Sea Level Pressure 29.66 in    
Wind  
Wind Speed 15 mph (WNW)    
Max Wind Speed 20 mph    
Max Gust Speed 30 mph    
Visibility 4 miles    
Events Fog , Snow    
Averages and records for this station are not official NWS values.
T = Trace of Precipitation, MM = Missing Value Source: NWS Daily Summary

Daily Weather History Graph

Daily Weather History Graph

Search for Another Location

Airport:

Trip Planner

Search our weather history database for the weather conditions in past years. The results will help you decide how hot, cold, wet, or windy it might be!

Date:

Astronomy

Nov. 02, 2012 Rise Set
Actual Time 8:25 AM AKDT 5:04 PM AKDT
Civil Twilight 7:40 AM AKDT 5:49 PM AKDT
Nautical Twilight 6:52 AM AKDT 6:37 PM AKDT
Astronomical Twilight 6:05 AM AKDT 7:24 PM AKDT
Moon 7:26 PM AKDT (11/2) 12:25 PM AKDT (11/2)
Length of Visible Light 10h 08m
Length of Day
8h 39m
Waning Gibbous, 86% of the Moon is Illuminated
Nov 2
Waning Gibbous
Nov 6
Last Quarter
Nov 13
New
Nov 20
First Quarter
Nov 28
Full

Hourly Weather History & Observations

Time (AKDT) Temp. Windchill Dew Point Humidity Pressure Visibility Wind Dir Wind Speed Gust Speed Precip Events Conditions
12:54 AM 26.1 °F 13.1 °F 17.1 °F 69% 29.88 in 10.0 mi NW 17.3 mph 24.2 mph N/A   Overcast
1:54 AM 26.1 °F 14.0 °F 16.0 °F 66% 29.86 in 10.0 mi NW 15.0 mph 21.9 mph N/A   Overcast
2:54 AM 26.1 °F 14.0 °F 16.0 °F 66% 29.83 in 10.0 mi WNW 15.0 mph 23.0 mph N/A   Overcast
3:54 AM 26.1 °F 13.1 °F 16.0 °F 66% 29.78 in 9.0 mi WNW 17.3 mph - N/A   Overcast
4:54 AM 26.1 °F 13.6 °F 16.0 °F 66% 29.76 in 9.0 mi WNW 16.1 mph 29.9 mph N/A   Overcast
5:54 AM 27.0 °F 13.5 °F 16.0 °F 63% 29.73 in 10.0 mi WNW 19.6 mph 28.8 mph N/A   Overcast
6:54 AM 27.0 °F 15.2 °F 16.0 °F 63% 29.70 in 10.0 mi NW 15.0 mph - N/A   Overcast
7:54 AM 27.0 °F 14.7 °F 16.0 °F 63% 29.68 in 10.0 mi NW 16.1 mph 23.0 mph N/A   Overcast
8:54 AM 27.0 °F 15.2 °F 18.0 °F 69% 29.68 in 5.0 mi WNW 15.0 mph 23.0 mph 0.00 in Snow Light Snow
9:00 AM 26.6 °F 13.4 °F 19.4 °F 74% 29.67 in 2.5 mi WNW 18.4 mph 23.0 mph 0.00 in Snow Light Snow
9:10 AM 24.8 °F 11.5 °F 21.2 °F 86% 29.67 in 1.0 mi WNW 17.3 mph 21.9 mph 0.00 in Snow Light Snow
9:13 AM 24.8 °F 12.4 °F 21.2 °F 86% 29.67 in 0.8 mi WNW 15.0 mph 21.9 mph 0.00 in Snow Light Snow
9:29 AM 24.8 °F 12.9 °F 23.0 °F 93% 29.67 in 0.8 mi WNW 13.8 mph - 0.00 in Snow Light Snow
9:46 AM 24.8 °F 11.9 °F 23.0 °F 93% 29.66 in 0.2 mi WNW 16.1 mph - 0.01 in Fog , Snow Heavy Snow
9:54 AM 25.0 °F 13.1 °F 21.9 °F 88% 29.67 in 0.2 mi WNW 13.8 mph - 0.01 in Fog , Snow Heavy Snow
10:01 AM 24.8 °F 11.9 °F 23.0 °F 93% 29.66 in 0.5 mi NW 16.1 mph 21.9 mph 0.01 in Fog , Snow Snow
10:23 AM 24.8 °F 12.4 °F 23.0 °F 93% 29.66 in 0.2 mi WNW 15.0 mph - 0.01 in Fog , Snow Heavy Snow
10:32 AM 24.8 °F 14.6 °F 23.0 °F 93% 29.66 in 0.2 mi NW 10.4 mph - 0.02 in Fog , Snow Heavy Snow
10:54 AM 25.0 °F 12.6 °F 23.0 °F 92% 29.66 in 0.2 mi WNW 15.0 mph - 0.03 in Fog , Snow Snow
11:54 AM 26.1 °F 14.0 °F 24.1 °F 92% 29.67 in 0.2 mi WNW 15.0 mph - 0.05 in Fog , Snow Snow
12:03 PM 26.6 °F 15.2 °F 23.0 °F 86% 29.66 in 0.5 mi WNW 13.8 mph - 0.00 in Fog , Snow Snow
12:17 PM 26.6 °F 14.7 °F 24.8 °F 93% 29.65 in 0.5 mi WNW 15.0 mph - 0.01 in Fog , Snow Snow
12:39 PM 26.6 °F 15.7 °F 24.8 °F 93% 29.65 in 1.0 mi WNW 12.7 mph - 0.01 in Snow Light Snow
12:54 PM 26.1 °F 15.6 °F 24.1 °F 92% 29.66 in 0.8 mi WNW 11.5 mph - 0.02 in Snow Light Snow
1:26 PM 26.6 °F 15.7 °F 24.8 °F 93% 29.64 in 1.2 mi WNW 12.7 mph - 0.01 in Snow Light Snow
1:54 PM 27.0 °F 16.7 °F 24.1 °F 89% 29.63 in 1.0 mi WNW 11.5 mph - 0.01 in Snow Light Snow
2:31 PM 26.6 °F 16.2 °F 24.8 °F 93% 29.62 in 0.8 mi WNW 11.5 mph - 0.01 in Snow Light Snow
2:41 PM 26.6 °F 16.2 °F 24.8 °F 93% 29.62 in 1.0 mi WNW 11.5 mph - 0.01 in Snow Light Snow
2:54 PM 27.0 °F 17.3 °F 25.0 °F 92% 29.63 in 1.2 mi WNW 10.4 mph - 0.01 in Snow Light Snow
3:54 PM 27.0 °F 17.3 °F 25.0 °F 92% 29.62 in 1.2 mi WNW 10.4 mph - 0.01 in Snow Light Snow
4:54 PM 27.0 °F 16.7 °F 25.0 °F 92% 29.63 in 1.2 mi WNW 11.5 mph - 0.01 in Snow Light Snow
5:20 PM 28.4 °F 18.5 °F 24.8 °F 86% 29.62 in 2.5 mi WNW 11.5 mph - 0.00 in Snow Light Snow
5:30 PM 26.6 °F 16.8 °F 24.8 °F 93% 29.62 in 4.0 mi West 10.4 mph - 0.00 in Snow Light Snow
5:54 PM 28.0 °F 20.0 °F 25.0 °F 88% 29.63 in 3.0 mi WNW 8.1 mph - 0.00 in Snow Light Snow
6:22 PM 26.6 °F 16.8 °F 24.8 °F 93% 29.63 in 2.5 mi WNW 10.4 mph - 0.00 in Snow Light Snow
6:54 PM 27.0 °F 17.3 °F 25.0 °F 92% 29.62 in 4.0 mi WNW 10.4 mph - 0.00 in Snow Light Snow
7:54 PM 27.0 °F 16.7 °F 25.0 °F 92% 29.63 in 10.0 mi WNW 11.5 mph - 0.00 in   Overcast
8:54 PM 28.0 °F 18.6 °F 25.0 °F 88% 29.62 in 9.0 mi WNW 10.4 mph - 0.00 in Snow Light Snow
9:54 PM 27.0 °F 16.1 °F 25.0 °F 92% 29.61 in 10.0 mi WNW 12.7 mph - 0.00 in   Overcast
10:54 PM 28.9 °F 18.6 °F 25.0 °F 85% 29.61 in 10.0 mi WNW 12.7 mph - 0.00 in Snow Light Snow
11:05 PM 28.4 °F 19.1 °F 24.8 °F 86% 29.60 in 1.8 mi WNW 10.4 mph - 0.00 in Snow Light Snow
11:22 PM 26.6 °F 16.8 °F 24.8 °F 93% 29.60 in 3.0 mi NW 10.4 mph - 0.01 in Snow Light Snow
11:39 PM 28.4 °F 17.5 °F 24.8 °F 86% 29.60 in 7.0 mi WNW 13.8 mph - 0.01 in Snow Light Snow
11:54 PM 28.0 °F 17.5 °F 25.0 °F 88% 29.60 in 6.0 mi WNW 12.7 mph - 0.01 in Snow Light Snow